Weather observations for the past three days for
Sevierville Gatlinburg - Pigeon Forge Airport
Imperial (Metric)
Date Time (edt) Wind (mph) Vis. (mi.) Weather Sky Cond. Temperature (ºF) Relative Humidity Wind Chill (°F) Heat Index (°F) Pressure Precipitation (in)
Air Dwpt 6 hour altimeter (in) sea level (mb) 1 hr 3 hr 6 hr
Max. Min.
22 23:15 Calm 10.00 Fair CLR 78.8 71.6 79% 82 30.02 0.0
22 22:55 Calm 10.00 Fair CLR 78.8 71.6 79% 82 30.02 0.0
22 22:35 Calm 10.00 Fair CLR 80.6 71.6 74% 85 30.02 0.0
22 22:15 Calm 10.00 Fair CLR 80.6 71.6 74% 85 30.01 0.0
22 21:55 E 3 10.00 Fair CLR 80.6 71.6 74% 85 30.01 0.0
22 21:35 E 3 10.00 Fair CLR 82.4 71.6 70% 87 30 0.0
22 21:15 Calm 10.00 A Few Clouds FEW110 84.2 71.6 66% 90 30.01 0.0
22 20:55 Calm 10.00 Mostly Cloudy BKN110 84.2 71.6 66% 90 30.01 0.0
22 20:35 Calm 10.00 Mostly Cloudy BKN110 86 71.6 62% 92 30.01 0.0
22 20:15 Calm 10.00 Mostly Cloudy BKN110 87.8 71.6 59% 94 30.01 0.0
22 19:55 SE 5 10.00 Overcast OVC110 89.6 71.6 55% 96 30.01 0.0
22 19:35 Calm 10.00 Overcast OVC110 91.4 69.8 49% 97 30.01 0.0
22 19:15 Calm 10.00 Overcast OVC110 89.6 69.8 52% 95 30.01 0.0
22 18:55 Calm 10.00 Overcast OVC110 89.6 69.8 52% 95 30.01 0.0
22 18:35 Vrbl 5 10.00 Overcast OVC110 91.4 69.8 49% 97 30.01 0.0
22 18:15 Calm 10.00 Overcast OVC110 91.4 69.8 49% 97 30.01 0.0
22 17:55 Calm 10.00 Mostly Cloudy BKN110 91.4 69.8 49% 97 30.01 0.0
22 17:35 Calm 10.00 Mostly Cloudy BKN110 91.4 69.8 49% 97 30.02 0.0
22 17:15 Calm 10.00 Mostly Cloudy BKN100 91.4 68 46% 96 30.03 0.0
22 16:55 NW 3 10.00 Mostly Cloudy BKN100 91.4 69.8 49% 97 30.03 0.0
22 16:35 SW 6 10.00 Mostly Cloudy FEW055 SCT065 BKN100 91.4 68 46% 96 30.04 0.0
22 16:15 SW 9 10.00 Overcast BKN055 OVC065 95 69.8 44% 101 30.04 0.0
22 15:55 Calm 10.00 Overcast OVC055 91.4 68 46% 96 30.05 0.0
22 15:35 Calm 10.00 Overcast OVC055 91.4 68 46% 96 30.06 0.0
22 15:15 Vrbl 3 10.00 Overcast BKN055 BKN090 OVC110 91.4 68 46% 96 30.07 0.0
22 14:55 Calm 10.00 Overcast BKN055 OVC090 89.6 68 49% 93 30.08 0.0
22 14:35 NE 6 10.00 Mostly Cloudy BKN055 BKN065 BKN085 91.4 68 46% 96 30.08 0.0
22 14:15 NE 5 10.00 Mostly Cloudy BKN050 91.4 68 46% 96 30.08 0.0
22 13:55 Calm 10.00 A Few Clouds FEW050 91.4 68 46% 96 30.09 0.0
22 13:35 Calm 10.00 A Few Clouds FEW050 89.6 68 49% 93 30.1 0.0
22 13:15 W 7 10.00 Fair CLR 89.6 68 49% 93 30.11 0.0
22 12:55 Calm 10.00 Fair CLR 89.6 68 49% 93 30.12 0.0
22 12:35 W 5 10.00 Fair CLR 91.4 68 46% 96 30.12 0.0
22 12:15 Vrbl 5 10.00 Fair CLR 91.4 68 46% 96 30.13 0.0
22 11:55 Vrbl 5 10.00 Fair CLR 89.6 68 49% 93 30.14 0.0
22 11:15 Calm 10.00 Fair CLR 86 68 55% 89 30.14 0.0
22 10:55 Calm 10.00 Fair CLR 86 68 55% 89 30.15 0.0
22 10:35 SE 5 10.00 Fair CLR 84.2 68 58% 87 30.16 0.0
22 10:15 Calm 10.00 Fair CLR 84.2 69.8 62% 88 30.17 0.0
22 09:55 Calm 10.00 Fair CLR 82.4 68 62% 85 30.17 0.0
22 09:35 Calm 10.00 Fair CLR 80.6 69.8 70% 84 30.17 0.0
22 09:15 Calm 10.00 Fair CLR 78.8 69.8 74% 81 30.18 0.0
22 08:55 Calm 10.00 Fair CLR 77 69.8 79% 79 30.18 0.0
22 08:35 Calm 10.00 Fair CLR 75.2 69.8 83% 75 30.18 0.0
22 08:15 Calm 10.00 Fair CLR 73.4 68 83% 30.18 0.0
22 07:55 Calm 10.00 Fair CLR 71.6 68 88% 30.18 0.0
22 07:35 Calm 10.00 Fair CLR 69.8 68 94% 30.17 0.0
22 07:15 Calm 10.00 Partly Cloudy SCT060 71.6 68 88% 30.17 0.0
22 06:55 Calm 10.00 Mostly Cloudy BKN060 69.8 68 94% 30.17 0.0
22 06:35 Calm 0.25 Fog VV002 68 68 100% 30.17 0.0
22 06:15 E 3 10.00 Partly Cloudy SCT060 68 68 100% 30.16 0.0
22 05:55 Calm 10.00 Overcast OVC060 68 68 100% 30.16 0.0
22 05:35 Calm 10.00 Mostly Cloudy BKN060 BKN095 68 68 100% 30.16 0.0
22 05:14 Calm 10.00 Partly Cloudy SCT095 69.8 68 94% 30.16 0.0
22 04:55 Calm 10.00 A Few Clouds FEW095 69.8 68 94% 30.16 0.0
22 04:35 Calm 10.00 Partly Cloudy SCT095 69.8 68 94% 30.15 0.0
22 04:15 Calm 10.00 Partly Cloudy FEW060 SCT100 69.8 68 94% 30.15 0.0
22 03:55 Calm 10.00 A Few Clouds FEW060 FEW100 71.6 68 88% 30.15 0.0
22 03:35 Calm 10.00 Fair CLR 71.6 68 88% 30.15 0.0
22 03:15 Calm 10.00 Fair CLR 71.6 68 88% 30.14 0.0
22 02:55 E 3 10.00 Fair CLR 71.6 68 88% 30.14 0.0
22 02:35 Calm 10.00 A Few Clouds FEW055 71.6 68 88% 30.15 0.0
22 02:15 Calm 10.00 Fair CLR 71.6 68 88% 30.15 0.0
22 01:55 Calm 10.00 Fair CLR 71.6 68 88% 30.15 0.0
22 01:35 Calm 10.00 Fair CLR 73.4 68 83% 30.15 0.0
22 01:15 Calm 10.00 Fair CLR 73.4 69.8 89% 30.16 0.0
22 00:55 Calm 10.00 Fair CLR 73.4 69.8 89% 30.16 0.0
22 00:35 Calm 10.00 Fair CLR 73.4 69.8 89% 30.16 0.0
22 00:15 Calm 10.00 Fair CLR 75.2 69.8 83% 75 30.17 0.0
21 23:55 Calm 10.00 Partly Cloudy SCT110 75.2 69.8 83% 75 30.17 0.0
21 23:35 Calm 10.00 Partly Cloudy SCT110 75.2 69.8 83% 75 30.17 0.0
21 23:15 Calm 10.00 Fair CLR 77 69.8 79% 79 30.16 0.0
21 22:55 Calm 10.00 Fair CLR 77 68 74% 79 30.16 0.0
21 22:35 Calm 10.00 Fair CLR 78.8 69.8 74% 81 30.15 0.0
21 22:15 SE 3 10.00 Fair CLR 78.8 68 70% 81 30.15 0.0
21 21:55 Calm 10.00 Fair CLR 78.8 68 70% 81 30.14 0.0
21 21:35 Calm 10.00 Fair CLR 80.6 66.2 62% 83 30.14 0.0
21 21:15 Calm 10.00 Fair CLR 82.4 66.2 58% 85 30.14 0.0
21 20:55 Calm 10.00 Fair CLR 84.2 66.2 55% 87 30.13 0.0
21 20:15 Calm 10.00 Fair CLR 87.8 66.2 49% 90 30.13 0.0
21 19:55 Calm 10.00 Fair CLR 89.6 64.4 43% 91 30.13 0.0
21 19:35 NE 6 10.00 Fair CLR 89.6 64.4 43% 91 30.14 0.0
21 19:15 NE 6 10.00 Fair CLR 91.4 62.6 38% 92 30.14 0.0
21 18:55 E 6 10.00 Fair CLR 91.4 64.4 41% 93 30.14 0.0
21 18:35 NE 6 10.00 Fair CLR 91.4 64.4 41% 93 30.14 0.0
21 18:15 N 6 10.00 Fair CLR 91.4 62.6 38% 92 30.15 0.0
21 17:55 NE 8 10.00 Fair CLR 91.4 62.6 38% 92 30.15 0.0
21 17:35 E 6 10.00 Fair CLR 91.4 64.4 41% 93 30.15 0.0
21 17:15 NE 8 10.00 Fair CLR 91.4 64.4 41% 93 30.16 0.0
21 16:55 Calm 10.00 Fair CLR 91.4 62.6 38% 92 30.16 0.0
21 16:35 Vrbl 7 10.00 Fair CLR 91.4 64.4 41% 93 30.17 0.0
21 16:15 N 6 G 12 10.00 Fair CLR 91.4 66.2 44% 94 30.17 0.0
21 15:55 N 10 10.00 Fair CLR 91.4 66.2 44% 94 30.18 0.0
21 15:35 NE 10 10.00 Fair CLR 91.4 66.2 44% 94 30.19 0.0
21 15:15 Calm 10.00 Fair CLR 91.4 64.4 41% 93 30.19 0.0
21 14:55 E 5 G 13 10.00 Fair CLR 89.6 66.2 46% 92 30.2 0.0
21 14:35 Vrbl 5 G 12 10.00 Fair CLR 89.6 66.2 46% 92 30.21 0.0
21 14:15 Vrbl 5 G 12 10.00 Partly Cloudy FEW050 SCT080 87.8 68 52% 91 30.22 0.0
21 13:55 Calm 10.00 Fair CLR 89.6 68 49% 93 30.23 0.0
21 13:35 Vrbl 6 10.00 A Few Clouds FEW049 FEW075 FEW085 87.8 68 52% 91 30.24 0.0
21 13:15 S 3 10.00 Mostly Cloudy SCT046 SCT050 BKN075 86 68 55% 89 30.24 0.0
21 12:55 Vrbl 5 10.00 Fair CLR 89.6 68 49% 93 30.25 0.0
21 12:35 Calm 10.00 Fair CLR 87.8 68 52% 91 30.26 0.0
21 12:15 Vrbl 3 G 12 10.00 Fair CLR 87.8 68 52% 91 30.27 0.0
21 11:55 Vrbl 5 10.00 Fair CLR 87.8 68 52% 91 30.27 0.0
21 11:35 SW 7 10.00 Fair CLR 89.6 69.8 52% 95 30.28 0.0
21 11:15 Vrbl 3 10.00 Fair CLR 87.8 68 52% 91 30.28 0.0
21 10:55 SW 7 10.00 Fair CLR 86 68 55% 89 30.28 0.0
21 10:35 Vrbl 7 10.00 Fair CLR 84.2 68 58% 87 30.28 0.0
21 10:15 Calm 10.00 Fair CLR 82.4 69.8 66% 86 30.28 0.0
21 09:55 Calm 10.00 Fair CLR 80.6 68 66% 83 30.29 0.0
21 09:35 Calm 10.00 Fair CLR 82.4 68 62% 85 30.29 0.0
21 09:15 Calm 10.00 Fair CLR 78.8 68 70% 81 30.29 0.0
21 08:55 Calm 10.00 Fair CLR 77 68 74% 79 30.29 0.0
21 08:35 Calm 10.00 A Few Clouds FEW065 75.2 68 78% 76 30.29 0.0
21 08:15 Calm 10.00 Mostly Cloudy SCT065 BKN075 73.4 68 83% 30.29 0.0
21 07:55 Calm 10.00 Mostly Cloudy BKN065 BKN075 71.6 68 88% 30.29 0.0
21 07:35 Calm 10.00 Fair CLR 69.8 66.2 88% 30.28 0.0
21 07:15 Calm 10.00 Fair CLR 68 66.2 94% 30.28 0.0
21 06:55 Calm 9.00 Fair CLR 66.2 66.2 100% 30.28 0.0
21 06:35 Calm 1.75 Fog/Mist CLR 66.2 66.2 100% 30.27 0.0
21 06:15 Calm 10.00 A Few Clouds FEW060 66.2 66.2 100% 30.27 0.0
21 05:55 Calm 9.00 A Few Clouds FEW060 66.2 66.2 100% 30.26 0.0
21 05:35 Calm 10.00 A Few Clouds FEW060 66.2 66.2 100% 30.26 0.0
21 05:15 Calm 10.00 Fair CLR 68 66.2 94% 30.26 0.0
21 04:55 Calm 10.00 Fair CLR 68 68 100% 30.25 0.0
21 04:35 Calm 10.00 A Few Clouds FEW055 68 68 100% 30.25 0.0
21 04:15 Calm 10.00 A Few Clouds FEW055 68 66.2 94% 30.25 0.0
21 03:55 Calm 10.00 A Few Clouds FEW055 69.8 68 94% 30.25 0.0
21 03:35 Calm 10.00 Fair CLR 69.8 68 94% 30.26 0.0
21 03:15 Calm 10.00 Fair CLR 69.8 68 94% 30.26 0.0
21 02:55 Calm 10.00 A Few Clouds FEW080 69.8 68 94% 30.26 0.0
21 02:35 Calm 10.00 Partly Cloudy SCT075 69.8 68 94% 30.26 0.0
21 02:15 E 5 10.00 Mostly Cloudy BKN075 71.6 68 88% 30.26 0.0
21 01:55 Calm 10.00 A Few Clouds FEW080 71.6 68 88% 30.26 0.0
21 01:35 E 3 10.00 Partly Cloudy SCT080 71.6 68 88% 30.26 0.0
21 01:15 Calm 10.00 Partly Cloudy SCT075 73.4 68 83% 30.27 0.0
21 00:55 E 3 10.00 Overcast BKN075 OVC085 73.4 68 83% 30.27 0.0
21 00:35 Calm 10.00 Mostly Cloudy BKN075 73.4 68 83% 30.27 0.0
21 00:15 Calm 10.00 Overcast OVC075 73.4 68 83% 30.27 0.0
20 23:55 Calm 10.00 Mostly Cloudy BKN080 73.4 68 83% 30.27 0.0
20 23:35 Calm 10.00 Fair CLR 75.2 68 78% 76 30.27 0.0
20 23:15 Calm 10.00 A Few Clouds FEW055 75.2 68 78% 76 30.26 0.0
20 22:55 Calm 10.00 A Few Clouds FEW055 75.2 68 78% 76 30.26 0.0
20 22:35 Calm 10.00 A Few Clouds FEW050 75.2 68 78% 76 30.26 0.0
20 22:15 Calm 10.00 Fair CLR 77 68 74% 79 30.25 0.0
20 21:55 Calm 10.00 Fair CLR 77 68 74% 79 30.25 0.0
20 21:35 Calm 10.00 A Few Clouds FEW070 78.8 68 70% 81 30.25 0.0
20 21:15 Calm 10.00 Partly Cloudy SCT070 80.6 68 66% 83 30.24 0.0
20 20:55 Calm 10.00 Partly Cloudy SCT070 84.2 68 58% 87 30.24 0.0
20 20:35 N 5 10.00 Partly Cloudy SCT075 84.2 66.2 55% 87 30.24 0.0
20 20:15 N 3 10.00 Fair CLR 86 66.2 52% 88 30.24 0.0
20 19:55 Calm 10.00 Fair CLR 87.8 66.2 49% 90 30.24 0.0
20 19:35 Calm 10.00 Fair CLR 87.8 64.4 46% 89 30.24 0.0
20 19:15 N 5 10.00 Fair CLR 87.8 64.4 46% 89 30.24 0.0
20 18:56 N 5 10.00 Fair CLR 89.6 66.2 46% 92 30.24 0.0
20 18:36 E 5 10.00 Fair CLR 89.6 66.2 46% 92 30.24 0.0
20 18:16 N 5 10.00 Fair CLR 89.6 66.2 46% 92 30.24 0.0
20 17:56 N 7 10.00 Fair CLR 89.6 66.2 46% 92 30.25 0.0
20 17:36 Vrbl 7 10.00 A Few Clouds FEW050 89.6 66.2 46% 92 30.25 0.0
20 17:16 Vrbl 7 10.00 A Few Clouds FEW055 89.6 68 49% 93 30.26 0.0
20 16:56 NW 7 10.00 Fair CLR 89.6 66.2 46% 92 30.26 0.0
20 16:36 Vrbl 5 10.00 A Few Clouds FEW055 87.8 66.2 49% 90 30.27 0.0
20 16:16 NE 5 10.00 Partly Cloudy SCT050 SCT060 87.8 66.2 49% 90 30.27 0.0
20 15:56 Vrbl 6 10.00 Partly Cloudy SCT055 89.6 66.2 46% 92 30.28 0.0
20 15:36 Calm 10.00 Partly Cloudy SCT050 87.8 66.2 49% 90 30.29 0.0
20 15:16 Calm 10.00 Mostly Cloudy SCT050 BKN060 87.8 66.2 49% 90 30.29 0.0
20 14:56 S 5 10.00 Mostly Cloudy BKN050 BKN060 86 66.2 52% 88 30.3 0.0
20 14:36 N 6 10.00 Partly Cloudy SCT050 87.8 66.2 49% 90 30.3 0.0
20 14:16 Vrbl 5 10.00 Fair CLR 87.8 66.2 49% 90 30.31 0.0
20 13:56 N 8 10.00 Fair CLR 87.8 66.2 49% 90 30.31 0.0
20 13:36 N 8 10.00 Fair CLR 87.8 66.2 49% 90 30.32 0.0
20 13:16 N 8 10.00 Fair CLR 87.8 66.2 49% 90 30.33 0.0
20 12:56 Vrbl 5 10.00 Fair CLR 86 64.4 49% 87 30.33 0.0
20 12:36 N 6 10.00 Fair CLR 84.2 64.4 51% 86 30.34 0.0
20 12:16 N 6 G 15 10.00 Fair CLR 86 66.2 52% 88 30.34 0.0
20 11:56 Vrbl 5 10.00 Fair CLR 86 66.2 52% 88 30.34 0.0
20 11:36 Vrbl 3 10.00 Fair CLR 84.2 66.2 55% 87 30.35 0.0
20 11:16 Calm 10.00 Fair CLR 86 66.2 52% 88 30.35 0.0
20 10:56 Vrbl 5 9.00 Fair CLR 86 66.2 52% 88 30.35 0.0
20 10:36 Calm 10.00 Fair CLR 84.2 66.2 55% 87 30.35 0.0
20 10:16 Vrbl 5 10.00 Fair CLR 82.4 66.2 58% 85 30.34 0.0
20 09:56 Calm 10.00 Fair CLR 80.6 68 66% 83 30.35 0.0
20 09:36 Calm 10.00 Fair CLR 77 68 74% 79 30.35 0.0
20 09:16 Calm 10.00 Fair CLR 75.2 66.2 74% 77 30.35 0.0
20 08:56 Calm 10.00 Fair CLR 73.4 66.2 78% 30.35 0.0
20 08:36 Calm 10.00 Fair CLR 73.4 66.2 78% 30.35 0.0
20 08:16 Calm 10.00 Fair CLR 71.6 66.2 83% 30.35 0.0
20 07:56 Calm 10.00 Fair CLR 69.8 64.4 83% 30.34 0.0
20 07:36 Calm 10.00 Fair CLR 66.2 64.4 94% 30.34 0.0
20 07:16 Calm 10.00 Fair CLR 64.4 64.4 100% 30.34 0.0
20 06:56 Calm 10.00 Fair CLR 62.6 62.6 100% 30.34 0.0
20 06:36 Calm 9.00 Fair CLR 62.6 62.6 100% 30.34 0.0
20 06:16 Calm 10.00 Fair CLR 62.6 62.6 100% 30.33 0.0
20 05:56 Calm 10.00 A Few Clouds FEW050 62.6 62.6 100% 30.33 0.0
20 05:36 Calm 10.00 Fair CLR 64.4 62.6 94% 30.33 0.0
20 05:16 Calm 10.00 Fair CLR 64.4 64.4 100% 30.32 0.0
20 04:56 Calm 10.00 Fair CLR 64.4 64.4 100% 30.32 0.0
20 04:36 Calm 10.00 Fair CLR 64.4 64.4 100% 30.32 0.0
20 04:16 Calm 10.00 Fair CLR 64.4 64.4 100% 30.31 0.0
20 03:56 Calm 10.00 Fair CLR 64.4 64.4 100% 30.31 0.0
20 03:36 Calm 10.00 Fair CLR 64.4 64.4 100% 30.3 0.0
20 03:16 Calm 10.00 Fair CLR 64.4 64.4 100% 30.3 0.0
20 02:56 Calm 10.00 A Few Clouds FEW049 66.2 66.2 100% 30.3 0.0
20 02:36 E 3 10.00 Fair CLR 66.2 66.2 100% 30.29 0.0
20 02:16 E 3 10.00 Fair CLR 66.2 64.4 94% 30.29 0.0
20 01:16 Calm 10.00 Fair CLR 68 66.2 94% 30.29 0.0
20 00:56 Calm 10.00 Fair CLR 68 66.2 94% 30.29 0.0
20 00:30 Calm 10.00 A Few Clouds FEW045 69.8 66.2 88% 30.28 0.0
20 00:16 Calm 10.00 Fair CLR 69.8 66.2 88% 30.28 0.0
19 23:56 Calm 10.00 Fair CLR 69.8 66.2 88% 30.28 0.0
19 23:36 Calm 10.00 Fair CLR 71.6 66.2 83% 30.28 0.0
Date Time (edt) Wind (mph) Vis. (mi.) Weather Sky Cond. Air Dwpt Max. Min. Relative Humidity Wind Chill (°F) Heat Index (°F) altimeter (in) sea level (mb) 1 hr 3 hr 6 hr
6 hour
Temperature (ºF) Pressure Precipitation (in)